Regional Weather Roundup
Issued by NWS State College, PA

Home | Current Version | Previous Version | Text Only | Print | Product List | Glossary Off
Versions: 1 2 3 4 5 6 7 8 9 10 11 12 13 14 15 16 17 18 19 20 21 22 23 24 25 26 27 28 29 30 31 32 33 34 35 36 37 38 39 40 41 42 43 44 45 46 47 48 49 50

000
ASUS41 KCTP 131610
RWRCTP

REGIONAL WEATHER ROUNDUP
NATIONAL WEATHER SERVICE STATE COLLEGE PA
1100 AM EST WED DEC 13 2017

Note: "fair" indicates few or no clouds below 12,000 feet with no
significant weather and/or obstructions to visibility.

* = STATION THAT DOES NOT REPORT PRECIPITATION /E.G. RAIN...SNOW...ETC/
    THUNDER OR FOG.

PAZ002>004-007>009-013>016-020>023-029>032-131700-
WESTERN PENNSYLVANIA

CITY           SKY/WX    TMP DP  RH WIND       PRES   REMARKS
ERIE           CLOUDY    20  10  65 W12G24    29.77F WCI   8
MEADVILLE      LGT SNOW  15  11  83 SW8       29.74F FOG     WCI   4
FRANKLIN*      LGT SNOW  15  10  80 W12       29.74F WCI   2
NEW CASTLE     CLOUDY    20  10  65 SW12      29.80F WCI   8
BEAVER COUNTY  MOSUNNY   21  10  63 SW12      29.80F WCI   9
BUTLER*        CLOUDY    19   9  65 W10G20    29.79F WCI   7
PITTSBURGH INT CLOUDY    22  10  60 W9G20     29.80F WCI  12
PITTSBURGH     CLOUDY    19   8  62 W14G23    29.80F WCI   6
INDIANA*       CLOUDY    18   9  68 W16       29.80F WCI   3
LATROBE        PTSUNNY   19   9  63 W16       29.82F WCI   5
WASHINGTON CO* FLURRIES  21  11  65 W10       29.84F WCI  10
$$

PAZ004>006-010>012-017>019-024>028-033>037-041-042-045-046-049>053-131700-
CENTRAL PENNSYLVANIA

CITY           SKY/WX    TMP DP  RH WIND       PRES   REMARKS
BRADFORD       LGT SNOW  14   8  77 W14G23    29.62S WCI  -1
DUBOIS         LGT SNOW  14   7  73 W17       29.70S WCI  -3
CLEARFIELD     FLURRIES  18   9  68 W10G22    29.71S WCI   6
JOHNSTOWN      CLOUDY    14   4  64 W23G35    29.68S WCI  -5
ALTOONA        CLOUDY    19   5  54 W16G23    29.75R WCI   4
STATE COLLEGE  PTSUNNY   19   5  53 NW25G39   29.71R WCI   2
WILLIAMSPORT   CLOUDY    26   9  48 W21G28    29.68R WCI  12
SELINSGROVE    MOSUNNY   25   8  48 W16G25    29.71F WCI  12
FT INDIANTOWN  MOSUNNY   25   4  39 NW17G31   29.70F WCI  12
CAPITAL CITY   MOSUNNY   28   2  32 W18G32    29.74S
HARRISBURG     MOSUNNY   28   7  41 NW22G36   29.73F WCI  14
YORK           SUNNY     25   5  42 W18G30    29.75S WCI  11
$$

PAZ038>040-043-044-047-048-054-055-060>062-067>071-131700-
EASTERN PENNSYLVANIA

CITY           SKY/WX    TMP DP  RH WIND       PRES   REMARKS
SCRANTON       PTSUNNY   23   5  46 NW23G31   29.58R WCI   7
MOUNT POCONO   MOSUNNY   17   4  56 W25G45    29.45R WCI  -1
ALLENTOWN      MOSUNNY   27   7  42 W25G33    29.63R WCI  12
QUAKERTOWN*    MOSUNNY   27   7  43 W17G23    29.65R WCI  14
READING        MOSUNNY   27   9  46 W21G35    29.68S WCI  13
LANCASTER      SUNNY     27   6  41 W30G37    29.71S WCI  11
COATESVILLE    SUNNY     27   5  39 W30G38    29.69S WCI  10
POTTSTOWN      MOSUNNY   25   6  44 W20G31    29.69R WCI  11
BLUE BELL      MOSUNNY   27   9  46 W17G28    29.69R WCI  14
DOYLESTOWN     MOSUNNY   27   6  41 W20G35    29.62R WCI  13
WILLOW GROVE   NOT AVBL
NORTH PHILA    SUNNY     30   7  37 W25G36    29.67S
PHILADELPHIA   MOSUNNY   28   4  35 W24G40    29.71R WCI  14
$$



USA.gov is the U.S. government's official web portal to all federal, state and local government web resources and services.